Weather History for KLAS - April, 2013

Change the Weather History Date:

Saturday, April 27, 2013

  Actual Average Record
Temperature  
Mean Temperature 77 °F 71 °F  
Max Temperature 91 °F 82 °F 99 °F (2000)
Min Temperature 63 °F 60 °F 39 °F (1984)
Degree Days  
Heating Degree Days 0 1  
Month to date heating degree days 34 61  
Since 1 July heating degree days 1757 1941  
Cooling Degree Days 12 7  
Month to date cooling degree days 137 107  
Year to date cooling degree days 223 138  
Growing Degree Days 27 (Base 50)    
Moisture  
Dew Point 15 °F    
Average Humidity 12    
Maximum Humidity 19    
Minimum Humidity 5    
Precipitation  
Precipitation 0.00 in 0.00 in 0.10 in (1960)
Month to date precipitation 0.03 0.14  
Year to date precipitation 0.61 1.88  
Snow  
Snow 0.00 in 0.00 in 0.00 in ()
Month to date snowfall 0.0 0.0  
Since 1 July snowfall T 0.3  
Snow Depth 0.00 in    
Sea Level Pressure  
Sea Level Pressure 29.97 in    
Wind  
Wind Speed 6 mph (SSW)    
Max Wind Speed 14 mph    
Max Gust Speed 16 mph    
Visibility 10 miles    
Events      
T = Trace of Precipitation, MM = Missing Value Source: NWS Daily Summary

Daily Weather History Graph

Daily Weather History Graph

Search for Another Location

Airport or City:

Trip Planner

Search our weather history database for the weather conditions in past years. The results will help you decide how hot, cold, wet, or windy it might be!

Date:

Astronomy

Apr. 27, 2013 Rise Set
Actual Time 5:52 AM PDT 7:24 PM PDT
Civil Twilight 5:24 AM PDT 7:52 PM PDT
Nautical Twilight 4:52 AM PDT 8:24 PM PDT
Astronomical Twilight 4:17 AM PDT 8:59 PM PDT
Moon 9:55 PM PDT (4/27) 7:17 AM PDT (4/27)
Length of Visible Light 14h 27m
Length of Day
13h 32m
Waning Gibbous, 95% of the Moon is Illuminated
Apr 27
Waning Gibbous
May 2
Last Quarter
May 9
New
May 17
First Quarter
May 24
Full

Hourly Weather History & Observations

Time (PDT) Temp. Dew Point Humidity Pressure Visibility Wind Dir Wind Speed Gust Speed Precip Events Conditions
12:56 AM 71.1 °F 15.1 °F 12% 30.01 in 10.0 mi South 9.2 mph - N/A   Clear
1:56 AM 69.1 °F 17.1 °F 14% 30.00 in 10.0 mi SSW 6.9 mph - N/A   Clear
2:56 AM 66.9 °F 18.0 °F 15% 30.00 in 10.0 mi SW 4.6 mph - N/A   Clear
3:56 AM 64.9 °F 21.9 °F 19% 30.02 in 10.0 mi SSW 5.8 mph - N/A   Clear
4:56 AM 64.0 °F 19.0 °F 18% 30.03 in 10.0 mi SSW 8.1 mph - N/A   Clear
5:56 AM 64.0 °F 19.0 °F 18% 30.04 in 10.0 mi SW 6.9 mph - N/A   Clear
6:56 AM 64.0 °F 16.0 °F 16% 30.06 in 10.0 mi SSW 9.2 mph - N/A   Clear
7:56 AM 71.1 °F 17.1 °F 13% 30.07 in 10.0 mi South 5.8 mph - N/A   Clear
8:56 AM 75.9 °F 15.1 °F 10% 30.07 in 10.0 mi SSW 3.5 mph - N/A   Clear
9:56 AM 80.1 °F 15.1 °F 9% 30.07 in 10.0 mi Calm Calm - N/A   Clear
10:56 AM 82.0 °F 12.9 °F 7% 30.07 in 10.0 mi Calm Calm - N/A   Clear
11:56 AM 84.9 °F 12.9 °F 7% 30.04 in 10.0 mi Variable 3.5 mph - N/A   Clear
12:56 PM 87.1 °F 10.9 °F 6% 30.01 in 10.0 mi Calm Calm - N/A   Clear
1:56 PM 88.0 °F 12.0 °F 6% 29.98 in 10.0 mi Variable 3.5 mph - N/A   Clear
2:56 PM 90.0 °F 12.0 °F 6% 29.94 in 10.0 mi Calm Calm - N/A   Clear
3:56 PM 89.1 °F 12.9 °F 6% 29.91 in 10.0 mi South 9.2 mph - N/A   Clear
4:56 PM 90.0 °F 12.9 °F 6% 29.90 in 10.0 mi SE 3.5 mph - N/A   Clear
5:56 PM 89.1 °F 12.9 °F 6% 29.88 in 10.0 mi South 6.9 mph - N/A   Clear
6:56 PM 88.0 °F 14.0 °F 6% 29.87 in 10.0 mi SSE 5.8 mph - N/A   Clear
7:56 PM 86.0 °F 15.1 °F 7% 29.86 in 10.0 mi South 5.8 mph - N/A   Clear
8:56 PM 84.0 °F 17.1 °F 8% 29.87 in 10.0 mi SSW 9.2 mph - N/A   Clear
9:56 PM 80.1 °F 15.1 °F 9% 29.87 in 10.0 mi SSW 9.2 mph - N/A   Clear
10:56 PM 79.0 °F 14.0 °F 9% 29.86 in 10.0 mi SW 11.5 mph - N/A   Clear
11:56 PM 78.1 °F 14.0 °F 9% 29.85 in 10.0 mi SW 12.7 mph - N/A   Clear